[[{"header":{"parameterUnit":"m.s-1","parameterCategory":1,"la1":30.2991,"la2":30.254,"lo1":-89.0895,"lo2":-89.0444,"dy":0.0017,"dx":0.0017,"nx":28,"ny":28,"refTime":"2023-07-29T21:00:00:Z","depth":0,"parameterNumber":2,"parameterNumberName":"U-component_of_WINDS"},"data":[0,0,0,0,0,0,0,0,0,0,0,0,0,0,0,0,0,0,0,0,0,0,0,0,0,0,0,0,0,0,0,0,0,0,0,0,0,0,0,0,0,0,0,0,0,0,0,0,0,0,0,0,0,0,0,0,0,0,-0.3469,-0.3468,0,-0.3374,-0.3373,-0.3372,-0.3318,-0.3318,-0.3318,-0.3318,-0.3218,-0.3215,-0.3213,0,0,0,0,0,0,0,0,0,0,0,0,0,-0.3604,-0.3602,-0.3469,-0.3468,-0.3467,-0.3374,-0.3373,-0.3372,-0.3319,-0.3318,-0.3318,-0.3318,-0.3218,-0.3215,-0.3212,0,0,0,0,0,0,0,0,0,0,0,0,0,-0.3531,-0.3601,-0.347,-0.3429,-0.3425,-0.3374,-0.3373,-0.3371,-0.3319,-0.3318,-0.3318,-0.3318,-0.3219,-0.3216,-0.3212,-0.3193,0,0,-0.32,-0.3199,0,0,0,0,0,0,0,0,-0.3535,-0.3526,-0.3437,-0.3432,-0.3427,-0.3358,-0.3384,-0.3312,-0.3319,-0.3359,-0.3318,-0.3318,-0.3264,-0.3257,-0.3239,-0.3189,-0.3184,-0.32,-0.3198,-0.3196,-0.3195,0,0,0,0,0,0,0,-0.354,-0.353,-0.3432,-0.3435,-0.3429,-0.3416,-0.3405,-0.337,-0.3314,-0.3355,-0.3351,-0.3341,-0.3262,-0.3243,-0.3237,-0.3183,-0.32,-0.3197,-0.3195,-0.3193,-0.3114,-0.3114,0,0,0,0,0,0,-0.3552,-0.3534,-0.3435,-0.3429,-0.3482,-0.3414,-0.3402,-0.338,-0.3314,-0.3304,-0.3341,-0.3339,-0.325,-0.3241,-0.3233,-0.3208,-0.3196,-0.3193,-0.319,-0.3114,-0.3114,-0.3114,0,0,0,0,0,0,-0.3555,-0.3544,-0.3438,-0.348,-0.3466,-0.3411,-0.3388,-0.3379,-0.336,-0.3304,-0.3293,-0.3333,-0.3249,-0.3238,-0.3204,-0.3204,-0.3191,-0.3188,-0.3113,-0.3114,-0.3114,-0.3157,0,0,0,0,0,0,-0.3559,-0.3545,-0.3538,-0.3481,-0.3464,-0.3412,-0.3388,-0.3377,-0.3354,-0.335,-0.3293,-0.3283,-0.3248,-0.321,-0.32,-0.3198,-0.3185,-0.3113,-0.3114,-0.3114,-0.3156,-0.3159,-0.3162,0,0,0,0,0,-0.3564,-0.3553,-0.3538,-0.3526,-0.3454,-0.3412,-0.3402,-0.3363,-0.3354,-0.3346,-0.331,-0.3285,-0.3205,-0.3207,-0.3196,-0.3192,-0.3113,-0.3113,-0.3114,-0.3154,-0.3158,-0.3162,0,0,0,0,0,0,-0.361,-0.3544,-0.3527,-0.3497,-0.3461,-0.3403,-0.3392,-0.3369,-0.3333,-0.3331,-0.3283,-0.3271,-0.3241,-0.3213,-0.3216,-0.3172,-0.3157,-0.3155,-0.3191,-0.3195,-0.3198,-0.3205,-0.3181,0,0,0,0,0,-0.3616,-0.3589,-0.3533,-0.3511,-0.3494,-0.3447,-0.3427,-0.34,-0.336,-0.3344,-0.3305,-0.3267,-0.3234,-0.3212,-0.3178,-0.3151,-0.3139,-0.3144,-0.3147,-0.3149,-0.3148,-0.3134,-0.3135,-0.3115,-0.3115,-0.3115,0,0,-0.3629,-0.359,-0.3575,-0.352,-0.3488,-0.3461,-0.3434,-0.3405,-0.3384,-0.3339,-0.3306,-0.3276,-0.323,-0.32,-0.3185,-0.3176,-0.3151,-0.315,-0.3153,-0.315,-0.3134,-0.3136,-0.3138,-0.3116,-0.3115,-0.3115,0,0,-0.3639,-0.3607,-0.3586,-0.3556,-0.351,-0.3478,-0.3474,-0.342,-0.3399,-0.3365,-0.3331,-0.3305,-0.3248,-0.3217,-0.3194,-0.3195,-0.317,-0.3185,-0.3201,-0.3187,-0.3189,-0.319,-0.3191,-0.3192,-0.3184,-0.3184,-0.3184,0,-0.3661,-0.3619,-0.3578,-0.3552,-0.3529,-0.3489,-0.3468,-0.344,-0.3385,-0.337,-0.3361,-0.329,-0.3255,-0.3219,-0.3219,-0.3201,-0.3195,-0.3191,-0.3192,-0.3193,-0.3193,-0.3194,-0.3194,-0.3186,-0.3186,-0.3186,-0.3185,0,-0.3648,-0.3619,-0.3608,-0.3558,-0.3533,-0.3509,-0.3466,-0.3445,-0.3421,-0.3391,-0.3357,-0.3315,-0.3273,-0.3262,-0.3237,-0.3222,-0.3218,-0.3201,-0.3185,-0.3198,-0.3198,-0.3198,-0.3189,-0.3188,-0.3188,-0.3187,0,0,-0.3683,-0.3612,-0.3609,-0.3586,-0.3532,-0.3509,-0.3484,-0.3444,-0.3428,-0.3391,-0.337,-0.3323,-0.3308,-0.3282,-0.3254,-0.3241,-0.3246,-0.3226,-0.3224,-0.3232,-0.3228,-0.3242,-0.3243,-0.323,-0.323,-0.323,-0.3232,0,-0.3686,-0.364,-0.3604,-0.3572,-0.3545,-0.3507,-0.3486,-0.3451,-0.3422,-0.3395,-0.3363,-0.3331,-0.3313,-0.3297,-0.3283,-0.3249,-0.3245,-0.3248,-0.3209,-0.3208,-0.3223,-0.3242,-0.3256,-0.3261,-0.3232,-0.3232,-0.3232,0,-0.3683,-0.3649,-0.3615,-0.3566,-0.3553,-0.3535,-0.3496,-0.347,-0.343,-0.341,-0.3383,-0.3354,-0.3326,-0.3313,-0.3274,-0.3277,-0.326,-0.324,-0.324,-0.3235,-0.3221,-0.3239,-0.3261,-0.3262,-0.3231,-0.3231,-0.3231,0,-0.3713,-0.3659,-0.3632,-0.3613,-0.3555,-0.3543,-0.3519,-0.3478,-0.3457,-0.3423,-0.3409,-0.3372,-0.3351,-0.3323,-0.3285,-0.3279,-0.3251,-0.3235,-0.3234,-0.3235,-0.323,-0.3231,-0.325,-0.3218,-0.3218,-0.3218,-0.3218,0,-0.372,-0.37,-0.3645,-0.3628,-0.3606,-0.3565,-0.3543,-0.3515,-0.348,-0.3457,-0.3422,-0.3402,-0.3353,-0.3326,-0.3296,-0.327,-0.326,-0.3244,-0.3236,-0.3247,-0.325,-0.3235,-0.3234,-0.3218,-0.3218,-0.3218,-0.3218,0,-0.3749,-0.3711,-0.368,-0.3628,-0.3615,-0.3601,-0.3556,-0.3539,-0.3509,-0.3481,-0.3472,-0.3425,-0.3392,-0.3352,-0.3305,-0.3285,-0.3262,-0.325,-0.3276,-0.3272,-0.3274,-0.3275,-0.3286,-0.3285,-0.3253,-0.3253,-0.3253,0,-0.3757,-0.3741,-0.3689,-0.3672,-0.3648,-0.3621,-0.36,-0.3559,-0.3538,-0.3493,-0.3481,-0.3446,-0.3416,-0.3365,-0.3327,-0.3292,-0.3279,-0.3285,-0.3273,-0.3286,-0.328,-0.3282,-0.3281,-0.3288,-0.3289,-0.3289,-0.329,0,-0.3774,-0.3756,-0.3727,-0.3693,-0.3669,-0.3639,-0.3607,-0.3595,-0.3548,-0.3526,-0.3493,-0.347,-0.3424,-0.339,-0.3351,-0.3325,-0.33,-0.3294,-0.3292,-0.3303,-0.332,-0.3312,-0.3285,-0.3294,-0.3293,-0.3293,-0.3293,-0.3292,-0.3793,-0.3778,-0.374,-0.3709,-0.3681,-0.3653,-0.3635,-0.3604,-0.3576,-0.3536,-0.3513,-0.3482,-0.3443,-0.3388,-0.3363,-0.3338,-0.3328,-0.3325,-0.3325,-0.3325,-0.3329,-0.3324,-0.333,-0.333,-0.333,-0.333,-0.3329,0,-0.3809,-0.3783,-0.3755,-0.3713,-0.369,-0.3669,-0.3634,-0.3615,-0.3588,-0.3555,-0.3527,-0.3489,-0.3457,-0.3417,-0.3381,-0.3369,-0.3356,-0.3361,-0.3362,-0.3356,-0.3339,-0.3344,-0.3372,-0.3372,-0.3372,-0.3372,-0.3372,-0.3372,-0.3815,-0.3789,-0.3767,-0.3728,-0.3702,-0.3671,-0.3653,-0.3627,-0.3601,-0.3561,-0.3535,-0.3509,-0.3473,-0.3435,-0.3405,-0.3394,-0.3383,-0.3391,-0.3377,-0.3361,-0.3357,-0.3354,-0.3359,-0.3389,-0.3389,-0.3397,-0.3397,-0.3397]},{"header":{"parameterUnit":"m.s-1","parameterCategory":1,"la1":30.2991,"la2":30.254,"lo1":-89.0895,"lo2":-89.0444,"dy":0.0017,"dx":0.0017,"nx":28,"ny":28,"refTime":"2023-07-29T21:00:00:Z","depth":0,"parameterNumber":3,"parameterNumberName":"V-component_of_WINDS"},"data":[0,0,0,0,0,0,0,0,0,0,0,0,0,0,0,0,0,0,0,0,0,0,0,0,0,0,0,0,0,0,0,0,0,0,0,0,0,0,0,0,0,0,0,0,0,0,0,0,0,0,0,0,0,0,0,0,0,0,1.888,1.8881,0,1.8961,1.8962,1.8963,1.8875,1.8872,1.8868,1.8865,1.8947,1.8952,1.8958,0,0,0,0,0,0,0,0,0,0,0,0,0,1.8649,1.8654,1.888,1.8881,1.8882,1.8961,1.8962,1.8963,1.8876,1.8871,1.8867,1.8864,1.8945,1.8952,1.8958,0,0,0,0,0,0,0,0,0,0,0,0,0,1.8741,1.8655,1.888,1.8848,1.8846,1.8961,1.8962,1.8963,1.8876,1.8871,1.8866,1.8862,1.8943,1.8951,1.8959,1.9109,0,0,1.8983,1.8987,0,0,0,0,0,0,0,0,1.8736,1.875,1.8852,1.8851,1.8848,1.8903,1.891,1.9012,1.8878,1.8865,1.8865,1.8859,1.8936,1.8945,1.8971,1.9113,1.9116,1.8984,1.8989,1.8992,1.8995,0,0,0,0,0,0,0,1.873,1.8746,1.8912,1.8853,1.8851,1.8829,1.8837,1.8929,1.8928,1.8866,1.8859,1.887,1.8935,1.8963,1.8972,1.9117,1.8984,1.8991,1.8996,1.8999,1.938,1.9386,0,0,0,0,0,0,1.8727,1.8741,1.891,1.8915,1.8779,1.8837,1.8846,1.889,1.8927,1.8927,1.8874,1.8866,1.8952,1.8963,1.8975,1.9147,1.8992,1.9,1.9004,1.9375,1.9382,1.9387,0,0,0,0,0,0,1.8723,1.8743,1.8906,1.8826,1.8845,1.8847,1.8897,1.8895,1.8923,1.8933,1.8932,1.8904,1.8949,1.8963,1.9075,1.9149,1.9003,1.901,1.9369,1.9377,1.9385,1.9498,0,0,0,0,0,0,1.8716,1.8742,1.88,1.8828,1.885,1.9006,1.8902,1.89,1.8937,1.8927,1.8961,1.8962,1.8946,1.9063,1.9083,1.9158,1.9017,1.9362,1.9373,1.9382,1.9487,1.9509,1.9527,0,0,0,0,0,1.8709,1.8829,1.8803,1.8824,1.8922,1.9011,1.9023,1.9002,1.8944,1.9,1.9006,1.8961,1.9139,1.9076,1.9097,1.9175,1.9357,1.937,1.9381,1.9478,1.9504,1.9526,0,0,0,0,0,0,1.881,1.8833,1.8803,1.8937,1.8973,1.8996,1.9067,1.9032,1.9084,1.9072,1.9044,1.9053,1.917,1.9185,1.9113,1.9319,1.9238,1.9255,1.9305,1.933,1.9349,1.9341,1.9023,0,0,0,0,0,1.8848,1.8919,1.8935,1.9051,1.907,1.9066,1.9104,1.9085,1.912,1.9135,1.9149,1.9185,1.9248,1.9291,1.935,1.949,1.9494,1.9555,1.9574,1.9591,1.9604,1.9674,1.97,1.9427,1.9427,1.9427,0,0,1.8927,1.8948,1.8995,1.9072,1.9097,1.9169,1.9079,1.916,1.9212,1.9147,1.9251,1.9264,1.9301,1.9426,1.9482,1.9442,1.9681,1.9606,1.9619,1.9623,1.9689,1.9715,1.9738,1.9435,1.9434,1.9432,0,0,1.9106,1.9132,1.9229,1.9255,1.9294,1.929,1.9314,1.9342,1.9347,1.9452,1.9402,1.9465,1.9576,1.9603,1.9632,1.982,1.9778,1.9841,1.9943,2.0012,2.0033,2.0052,2.0114,2.0137,1.9855,1.9856,1.9856,0,1.9199,1.9306,1.9284,1.9367,1.94,1.9345,1.9441,1.9468,1.9525,1.9549,1.9503,1.9639,1.9661,1.9789,1.9835,1.9862,1.9885,1.9835,2.0032,2.005,2.0068,2.0126,2.015,1.9863,1.9862,1.9861,1.986,0,1.9416,1.9491,1.9565,1.9618,1.9661,1.9752,1.9741,1.9787,1.9764,1.9765,1.987,1.9895,1.9956,1.9986,1.9966,2.0111,2.0083,2.0036,1.9953,2.0101,2.0155,2.0178,1.9872,1.987,1.9868,1.9866,0,0,1.966,1.9699,1.9726,1.9747,1.9786,1.9842,1.9929,1.9988,2.0026,2.0068,2.0137,2.0232,2.0186,2.0219,2.0202,2.0263,2.0404,2.0207,2.0207,2.0238,2.0559,2.059,2.0617,2.0378,2.0382,2.0386,2.0554,0,1.9835,1.9984,1.9965,2.0107,2.0173,2.0121,2.0195,2.0226,2.0229,2.0285,2.0289,2.0354,2.0292,2.0311,2.037,2.0374,2.0467,2.0363,2.0438,2.0441,2.0425,2.0646,2.0681,2.0838,2.0575,2.0579,2.0582,0,2.006,2.0106,2.0254,2.0278,2.0305,2.0373,2.0423,2.048,2.0512,2.051,2.0546,2.0516,2.0601,2.052,2.0634,2.0563,2.0594,2.0601,2.0606,2.0608,2.0517,2.0649,2.0889,2.091,2.0616,2.0613,2.0611,0,2.0215,2.0316,2.0416,2.0437,2.047,2.0517,2.0533,2.0561,2.0597,2.0642,2.0664,2.072,2.0748,2.0791,2.0776,2.072,2.0892,2.0811,2.0889,2.0889,2.0923,2.092,2.1165,2.0953,2.0952,2.0952,2.0951,0,2.041,2.0501,2.0485,2.0547,2.0646,2.0625,2.0724,2.0733,2.0758,2.0819,2.0779,2.0837,2.0817,2.0873,2.0863,2.0956,2.0971,2.0969,2.0964,2.0969,2.0969,2.0985,2.0972,2.0958,2.0957,2.0955,2.0954,0,2.0598,2.0593,2.0697,2.0719,2.0726,2.0798,2.0816,2.0873,2.0873,2.095,2.0967,2.0966,2.103,2.1021,2.1093,2.1086,2.12,2.1185,2.1188,2.1182,2.1259,2.125,2.1518,2.155,2.1322,2.1324,2.1326,0,2.072,2.0789,2.0817,2.0854,2.0873,2.0935,2.097,2.0951,2.099,2.1031,2.1082,2.1142,2.1189,2.1293,2.1298,2.1352,2.1334,2.1425,2.1342,2.1344,2.1329,2.1323,2.1327,2.144,2.1442,2.1444,2.1446,0,2.0936,2.0929,2.0981,2.1032,2.1076,2.1116,2.1151,2.1184,2.1168,2.1214,2.1278,2.1314,2.1386,2.1445,2.1495,2.151,2.1474,2.1473,2.1493,2.1496,2.1493,2.149,2.1227,2.1466,2.1464,2.1462,2.1461,2.146,2.1091,2.1147,2.1175,2.1234,2.1258,2.1292,2.1345,2.1351,2.1404,2.146,2.1447,2.1518,2.1547,2.161,2.1631,2.1685,2.1652,2.1682,2.1689,2.1695,2.1701,2.1489,2.1695,2.1695,2.1694,2.1694,2.1693,0,2.1299,2.1313,2.1368,2.1418,2.1464,2.1429,2.1466,2.1506,2.1569,2.1599,2.1645,2.1717,2.1774,2.1784,2.1837,2.1878,2.1863,2.1893,2.1886,2.1889,2.1731,2.1706,2.1904,2.1904,2.1904,2.1904,2.1903,2.1903,2.1412,2.1504,2.15,2.1603,2.1618,2.1686,2.171,2.174,2.1763,2.1845,2.1892,2.1898,2.1919,2.1973,2.2022,2.2024,2.2043,2.2077,2.2072,2.1923,2.1901,2.1881,2.1857,2.2083,2.2083,2.2225,2.2226,2.2227]}]]